False Pass, AK

1:23 PM AKDT on March 27, 2017 (GMT -0800)
False Pass

Weather History for PAKF - October, 2013

Change the Weather History Date:

Thursday, October 3, 2013

  Actual Average (PACD) Record (PACD)
Temperature  
Mean Temperature 42 °F -  
Max Temperature 42 °F 48 °F 59 °F (1954)
Min Temperature 39 °F 36 °F 31 °F (1961)
Degree Days  
Heating Degree Days 22    
Moisture  
Dew Point 40 °F    
Average Humidity 83    
Maximum Humidity 93    
Minimum Humidity 67    
Precipitation  
Precipitation 0.27 in - - ()
Sea Level Pressure  
Sea Level Pressure 29.81 in    
Wind  
Wind Speed 18 mph (WNW)    
Max Wind Speed 30 mph    
Max Gust Speed 41 mph    
Visibility 8 miles    
Events Rain    
Averages and records for this station are not official NWS values.
T = Trace of Precipitation, MM = Missing Value Source: NWS Daily Summary

Daily Weather History Graph

Daily Weather History Graph

Search for Another Location

Airport or City:

Trip Planner

Search our weather history database for the weather conditions in past years. The results will help you decide how hot, cold, wet, or windy it might be!

Date:

Astronomy

Oct. 03, 2013 Rise Set
Actual Time 8:00 AM HDT 7:23 PM HDT
Civil Twilight 7:24 AM HDT 7:59 PM HDT
Nautical Twilight 6:42 AM HDT 8:40 PM HDT
Astronomical Twilight 5:59 AM HDT 9:23 PM HDT
Moon 6:40 AM HDT (10/3) 6:39 PM HDT (10/3)
Length of Visible Light 12h 34m
Length of Day
11h 22m
Waning Crescent, 2% of the Moon is Illuminated
Oct 3
Waning Crescent
Oct 4
New
Oct 11
First Quarter
Oct 18
Full
Oct 26
Last Quarter

Hourly Weather History & Observations

Time (HDT) Temp. Windchill Dew Point Humidity Pressure Visibility Wind Dir Wind Speed Gust Speed Precip Events Conditions
12:01 AM 46.9 °F - 44.1 °F 90% 29.70 in 10.0 mi NW 15.0 mph 24.2 mph N/A   Overcast
12:43 AM 46.4 °F 40.4 °F 44.6 °F 93% 29.44 in 10.0 mi NW 13.8 mph 21.9 mph 0.01 in Rain Light Rain
1:01 AM 46.0 °F 38.5 °F 43.0 °F 89% 29.72 in 10.0 mi NW 19.6 mph 26.5 mph 0.01 in Rain Light Rain
1:38 AM 46.4 °F 39.8 °F 44.6 °F 93% 29.45 in 6.0 mi NW 16.1 mph 24.2 mph 0.02 in Rain Light Rain
1:45 AM 46.4 °F 39.8 °F 44.6 °F 93% 29.46 in 7.0 mi NW 16.1 mph 23.0 mph 0.02 in Rain Light Rain
2:01 AM 46.0 °F 40.2 °F 44.1 °F 93% 29.74 in 4.0 mi NW 12.7 mph 24.2 mph 0.04 in Rain Rain
2:32 AM 46.4 °F 39.8 °F 44.6 °F 93% 29.47 in 8.0 mi NW 16.1 mph 27.6 mph 0.02 in Rain Light Rain
3:01 AM 46.4 °F 39.8 °F 42.8 °F 87% 29.48 in 5.0 mi NW 16.1 mph 32.2 mph 0.02 in Rain Light Rain
4:01 AM 46.4 °F 38.7 °F 42.8 °F 87% 29.50 in 8.0 mi WNW 20.7 mph 41.4 mph 0.02 in Rain Light Rain
4:10 AM 46.0 °F 38.0 °F 43.0 °F 89% 29.78 in 10.0 mi WNW 21.9 mph 33.4 mph 0.02 in Rain Light Rain
5:01 AM 44.6 °F 37.4 °F 42.8 °F 93% 29.52 in 2.5 mi WNW 16.1 mph 33.4 mph 0.00 in Rain Light Rain
6:01 AM 44.1 °F 35.0 °F 42.1 °F 93% 29.83 in 2.0 mi NW 24.2 mph 31.1 mph 0.04 in Rain Light Rain
6:50 AM 44.6 °F 37.8 °F 42.8 °F 93% 29.57 in 5.0 mi WNW 15.0 mph 25.3 mph 0.03 in Rain Light Rain
7:01 AM 45.0 °F 37.4 °F 41.0 °F 86% 29.86 in 8.0 mi WNW 18.4 mph 31.1 mph 0.03 in Rain Light Rain
8:01 AM 45.0 °F 37.9 °F 41.0 °F 86% 29.89 in 4.0 mi WNW 16.1 mph 32.2 mph 0.01 in Rain Light Rain
8:37 AM 44.6 °F 36.1 °F 39.2 °F 81% 29.63 in 10.0 mi West 21.9 mph 33.4 mph 0.01 in   Overcast
9:01 AM 45.0 °F 36.0 °F 39.0 °F 80% 29.94 in 10.0 mi West 25.3 mph 40.3 mph 0.01 in   Overcast
10:01 AM 45.0 °F 35.2 °F 37.9 °F 76% 29.96 in 10.0 mi WNW 29.9 mph 41.4 mph N/A   Overcast
11:01 AM 45.0 °F 37.4 °F 39.0 °F 80% 29.99 in 10.0 mi WNW 18.4 mph 33.4 mph 0.00 in Rain Light Rain
12:01 PM 44.1 °F 35.4 °F 37.9 °F 79% 30.01 in 10.0 mi WNW 21.9 mph 34.5 mph 0.00 in Rain Light Rain
12:28 PM 44.6 °F 35.5 °F 37.4 °F 76% 29.73 in 10.0 mi WNW 25.3 mph 36.8 mph 0.00 in   Overcast
1:01 PM 44.6 °F 36.4 °F 37.4 °F 76% 29.74 in 10.0 mi WNW 20.7 mph 32.2 mph 0.00 in   Overcast
2:01 PM 45.0 °F 37.6 °F 37.0 °F 74% 30.04 in 10.0 mi WNW 17.3 mph 33.4 mph 0.00 in   Overcast
3:01 PM 44.6 °F 36.9 °F 35.6 °F 71% 29.77 in 10.0 mi WNW 18.4 mph 31.1 mph N/A   Overcast
4:01 PM 45.0 °F 36.0 °F 35.1 °F 68% 30.07 in 10.0 mi WNW 25.3 mph 40.3 mph N/A   Overcast
4:28 PM 42.8 °F 34.0 °F 37.4 °F 81% 29.80 in 6.0 mi West 20.7 mph 33.4 mph 0.00 in Rain Light Rain
4:44 PM 42.8 °F 33.8 °F 37.4 °F 81% 29.80 in 5.0 mi WNW 21.9 mph 34.5 mph 0.01 in Rain Light Rain
4:54 PM 42.8 °F 34.3 °F 35.6 °F 76% 29.79 in 6.0 mi West 19.6 mph 41.4 mph 0.02 in Rain Light Rain
5:01 PM 42.1 °F 32.8 °F 37.0 °F 82% 30.08 in 5.0 mi West 21.9 mph 41.4 mph 0.03 in Rain Light Rain
6:01 PM 42.1 °F 33.6 °F 37.0 °F 82% 30.09 in 7.0 mi West 18.4 mph 39.1 mph 0.04 in Rain Light Rain
8:01 PM 41.0 °F 31.4 °F 35.1 °F 79% 30.13 in 9.0 mi West 21.9 mph 36.8 mph 0.01 in Rain Light Rain
9:01 PM 39.9 °F 29.2 °F 35.1 °F 83% 30.15 in 6.0 mi WNW 25.3 mph 39.1 mph 0.02 in Rain Light Rain
10:01 PM 41.0 °F 32.5 °F 35.1 °F 79% 30.17 in 10.0 mi West 17.3 mph 38.0 mph 0.01 in Rain Light Rain
11:01 PM 42.1 °F 32.6 °F 32.0 °F 67% 30.19 in 10.0 mi WNW 23.0 mph 35.7 mph 0.00 in Rain Light Rain